Location: Ladrillo (historical)
(32.8195°N, 117.2231°W)
Time: 03:29:43
(UTC+00:00)

Cosmos 1689 Rocket - Pass Details

Date: 29 October 2020
Orbit: 360 x 375 km, 97.5° (Epoch: 26 November)

Event Time Altitude Azimuth Distance (km) Brightness Sun altitude
Rises 13:16:06 0° 172° (S) 2,226 6.2 -10.8°
Reaches altitude 10° 13:18:03 10° 174° (S) 1,377 5.1 -10.4°
Maximum altitude 13:20:58 70° 258° (WSW) 400 1.9 -9.8°
Drops below altitude 10° 13:23:52 10° 344° (NNW) 1,365 4.6 -9.2°
Sets 13:25:50 0° 346° (NNW) 2,227 5.7 -8.8°
